Albany, NY

12:37 PM EDT on July 20, 2017 (GMT -0400)
Albany International

Weather History for KALB - December, 2011

Change the Weather History Date:

Saturday, December 3, 2011

  Actual Average Record
Temperature  
Mean Temperature 33 °F 33 °F  
Max Temperature 41 °F 41 °F 63 °F (2009)
Min Temperature 25 °F 26 °F -1 °F (1940)
Degree Days  
Heating Degree Days 32 32  
Month to date heating degree days 92 94  
Since 1 July heating degree days 1149 1498  
Cooling Degree Days 0 0  
Month to date cooling degree days 0 0  
Year to date cooling degree days 794 598  
Moisture  
Dew Point 24 °F    
Average Humidity 67    
Maximum Humidity 85    
Minimum Humidity 48    
Precipitation  
Precipitation 0.00 in 0.11 in 1.24 in (1991)
Month to date precipitation T 0.32  
Year to date precipitation 49.92 36.74  
Snow  
Snow 0.00 in 0.30 in 5.20 in (1893)
Month to date snowfall 0.0 0.9  
Since 1 July snowfall 5.4 4.0  
Snow Depth 0.00 in    
Sea Level Pressure  
Sea Level Pressure 30.62 in    
Wind  
Wind Speed 3 mph (SSW)    
Max Wind Speed 12 mph    
Max Gust Speed 15 mph    
Visibility 10 miles    
Events      
T = Trace of Precipitation, MM = Missing Value Source: NWS Daily Summary

Daily Weather History Graph

Daily Weather History Graph

Search for Another Location

Airport or City:

Trip Planner

Search our weather history database for the weather conditions in past years. The results will help you decide how hot, cold, wet, or windy it might be!

Date:

Astronomy

Dec. 03, 2011 Rise Set
Actual Time 7:07 AM EST 4:21 PM EST
Civil Twilight 6:36 AM EST 4:53 PM EST
Nautical Twilight 6:00 AM EST 5:28 PM EST
Astronomical Twilight 5:26 AM EST 6:02 PM EST
Moon 12:32 PM EST (12/3) 12:25 AM EST (12/3)
Length of Visible Light 10h 17m
Length of Day
9h 14m
Waxing Gibbous, 62% of the Moon is Illuminated
Dec 3
Waxing Gibbous
Dec 10
Full
Dec 17
Last Quarter
Dec 24
New
Jan 1
First Quarter

Hourly Weather History & Observations

Time (EST) Temp. Windchill Dew Point Humidity Pressure Visibility Wind Dir Wind Speed Gust Speed Precip Events Conditions
12:51 AM 32.0 °F 23.0 °F 26.1 °F 79% 30.56 in 10.0 mi West 11.5 mph - N/A   Partly Cloudy
1:51 AM 30.9 °F 25.2 °F 25.0 °F 79% 30.57 in 10.0 mi NNW 5.8 mph - N/A   Clear
2:51 AM 28.0 °F - 24.1 °F 85% 30.59 in 10.0 mi Calm Calm - N/A   Clear
3:51 AM 28.9 °F 23.9 °F 24.1 °F 82% 30.61 in 10.0 mi North 4.6 mph - N/A   Clear
4:51 AM 28.0 °F - 24.1 °F 85% 30.63 in 10.0 mi Calm Calm - N/A   Clear
5:51 AM 28.0 °F 24.2 °F 21.9 °F 78% 30.66 in 10.0 mi North 3.5 mph - N/A   Partly Cloudy
6:51 AM 26.1 °F 20.5 °F 21.9 °F 84% 30.67 in 10.0 mi NNW 4.6 mph - N/A   Partly Cloudy
7:51 AM 27.0 °F 23.0 °F 23.0 °F 85% 30.69 in 10.0 mi NW 3.5 mph - N/A   Partly Cloudy
8:51 AM 32.0 °F 28.7 °F 25.0 °F 75% 30.70 in 10.0 mi NNE 3.5 mph - N/A   Partly Cloudy
9:51 AM 34.0 °F - 26.1 °F 73% 30.70 in 10.0 mi Calm Calm - N/A   Partly Cloudy
10:51 AM 37.0 °F - 27.0 °F 67% 30.69 in 10.0 mi Calm Calm - N/A   Partly Cloudy
11:51 AM 37.9 °F 35.5 °F 26.1 °F 62% 30.66 in 10.0 mi WSW 3.5 mph - N/A   Partly Cloudy
12:51 PM 39.0 °F 36.8 °F 25.0 °F 57% 30.63 in 10.0 mi South 3.5 mph - N/A   Partly Cloudy
1:51 PM 39.9 °F 37.8 °F 24.1 °F 53% 30.60 in 10.0 mi South 3.5 mph - N/A   Partly Cloudy
2:51 PM 39.9 °F 35.8 °F 21.9 °F 49% 30.61 in 10.0 mi South 5.8 mph - N/A   Mostly Cloudy
3:51 PM 39.9 °F 37.8 °F 21.9 °F 49% 30.61 in 10.0 mi SE 3.5 mph - N/A   Mostly Cloudy
4:51 PM 36.0 °F - 24.1 °F 62% 30.62 in 10.0 mi Calm Calm - N/A   Scattered Clouds
5:51 PM 34.0 °F 31.0 °F 25.0 °F 70% 30.62 in 10.0 mi SE 3.5 mph - N/A   Partly Cloudy
6:51 PM 33.1 °F - 25.0 °F 72% 30.62 in 10.0 mi Calm Calm - N/A   Partly Cloudy
7:51 PM 28.9 °F - 23.0 °F 78% 30.62 in 10.0 mi Calm Calm - N/A   Clear
8:51 PM 28.4 °F - 23.0 °F 80% 30.59 in 10.0 mi Calm Calm - N/A   Partly Cloudy
9:51 PM 34.0 °F 31.0 °F 23.0 °F 64% 30.59 in 10.0 mi South 3.5 mph - N/A   Partly Cloudy
10:51 PM 30.9 °F 26.2 °F 23.0 °F 72% 30.57 in 10.0 mi South 4.6 mph - N/A   Partly Cloudy
11:51 PM 35.1 °F 29.3 °F 24.1 °F 64% 30.55 in 10.0 mi SSE 6.9 mph - N/A   Mostly Cloudy